Home > Weather > Kuwait City > Past weeks

Flag for Kuwait Past Weather in Kuwait City, Kuwait — Yesterday and Last 2 Weeks

Now
93 °F

Sunny.


Feels Like: 90 °F
Forecast: 87 / 106 °F
Wind: 5 mph from South

Location: Kuwait International Airport

Current Time: Jul 25, 2016 at 7:37:14 AM

Latest Report: Jul 25, 2016 at 7:00 AM


Visibility: 10 mi

Pressure: 29.50 "Hg

Humidity: 24%

Dew Point: 52 °F

Location of Kuwait CityLocation

Past Weather in Kuwait City — Graph

°F

Kuwait City Temperature Yesterday

Maximum temperature yesterday: 113 °F (at 2:00 PM)
Minimum temperature yesterday: 84 °F (at 4:00 AM)
Average temperature yesterday: 100 °F

High & Low Weather Summary for the Past Weeks

 TemperatureHumidityPressure
High124 °F (Jul 21, 1:00 PM)53% (Jul 22, 2:00 AM)29.56 "Hg (Jul 22, 2:00 AM)
Low81 °F (Jul 14, 5:00 AM)5% (Jul 13, 3:59 PM)29.39 "Hg (Jul 17, 4:00 PM)
Average105 °F16%29.47 "Hg
* Reported Jul 10 6:00 AM — Jul 25 6:00 AM, Kuwait City, Weather by CustomWeather, © 2016

Note: Actual official high and low records may vary slightly from our data, if they occured in-between our weather recording intervals... More about our weather records

Advertising

Kuwait City Weather History for the Previous 24 Hours

Scroll right to see more
 ConditionsComfort  
Time TempWeatherWind HumidityBarometerVisibility
6:00 AM
Mon, Jul 25
86 °FSunny.7 mph31%29.47 "Hg10 mi
5:00 AM84 °FClear.6 mph33%29.47 "Hg10 mi
4:00 AM86 °FClear.7 mph31%29.45 "Hg10 mi
3:00 AM86 °FClear.No wind31%29.45 "Hg10 mi
2:00 AM88 °FClear.3 mph29%29.45 "Hg10 mi
1:00 AM88 °FClear.5 mph31%29.45 "Hg10 mi
12:00 AM90 °FClear.5 mph29%29.45 "Hg10 mi
11:00 PM
Sun, Jul 24
93 °FClear.9 mph26%29.45 "Hg5 mi
10:00 PM95 °FClear.9 mph25%29.45 "Hg5 mi
9:00 PM97 °FClear.9 mph22%29.45 "Hg10 mi
8:00 PM99 °FClear.8 mph18%29.42 "Hg10 mi
7:00 PM102 °FClear.12 mph18%29.42 "Hg10 mi
6:00 PM106 °FSunny.13 mph14%29.39 "Hg10 mi
5:00 PM109 °FSunny.12 mph11%29.39 "Hg10 mi
3:59 PM111 °FSunny.9 mph9%29.39 "Hg10 mi
3:00 PM111 °FSunny.10 mph10%29.39 "Hg10 mi
2:00 PM113 °FSunny.No wind9%29.42 "Hg10 mi
1:00 PM111 °FSunny.5 mph9%29.42 "Hg10 mi
12:00 PM109 °FSunny.9 mph10%29.45 "Hg10 mi
11:00 AM108 °FSunny.8 mph11%29.45 "Hg10 mi
10:00 AM106 °FSunny.9 mph12%29.45 "Hg10 mi
9:00 AM104 °FSunny.9 mph13%29.45 "Hg10 mi
8:00 AM97 °FSunny.8 mph14%29.45 "Hg4 mi
7:00 AM91 °FSunny.8 mph15%29.45 "Hg4 mi
Weather by CustomWeather, © 2016

See weather overviewHow to use our weather pages